| time (UTC) | temp C | wind direction | speed KPH | gust KPH | rain 1hr cm | rain 24hr cm | rain mn cm | humidity % | barometer mb |
| 20260905175222 | 33 | 357 | 0.0 | 4.8 | 0.00 | 0.03 | 0.00 | 63 | 1012.6 |
| 20260905175157 | 33 | 78 | 4.8 | 6.4 | 0.00 | 0.03 | 0.00 | 62 | 1012.6 |
| 20260905174723 | 33 | 51 | 1.6 | 1.6 | 0.00 | 0.03 | 0.00 | 67 | 1012.6 |
| 20260905174224 | 33 | 133 | 3.2 | 3.2 | 0.00 | 0.03 | 0.00 | 63 | 1012.8 |
| 20260905174156 | 33 | 82 | 0.0 | 1.6 | 0.00 | 0.03 | 0.00 | 63 | 1012.8 |
| 20260905173722 | 33 | 359 | 4.8 | 6.4 | 0.00 | 0.03 | 0.00 | 62 | 1012.8 |
| 20260905173223 | 33 | 61 | 3.2 | 3.2 | 0.00 | 0.03 | 0.00 | 64 | 1012.8 |
| 20260905173158 | 33 | 251 | 3.2 | 6.4 | 0.00 | 0.03 | 0.00 | 64 | 1012.8 |
| 20260905172724 | 33 | 325 | 0.0 | 1.6 | 0.00 | 0.03 | 0.00 | 64 | 1012.9 |
| 20260905172222 | 33 | 301 | 1.6 | 4.8 | 0.00 | 0.03 | 0.00 | 64 | 1012.9 |
| 20260905172157 | 33 | 52 | 4.8 | 4.8 | 0.00 | 0.03 | 0.00 | 64 | 1012.9 |
| 20260905171724 | 33 | 109 | 3.2 | 3.2 | 0.00 | 0.03 | 0.00 | 65 | 1012.9 |
| 20260905171223 | 33 | 83 | 3.2 | 3.2 | 0.00 | 0.03 | 0.00 | 65 | 1013.0 |
| 20260905171156 | 33 | 83 | 3.2 | 3.2 | 0.00 | 0.03 | 0.00 | 65 | 1013.0 |
| 20260905170723 | 33 | 124 | 8.0 | 11.3 | 0.00 | 0.03 | 0.00 | 66 | 1013.0 |
| 20260905170224 | 33 | 0 | 3.2 | 6.4 | 0.00 | 0.03 | 0.00 | 68 | 1013.0 |
| 20260905170157 | 33 | 1 | 6.4 | 9.7 | 0.00 | 0.03 | 0.00 | 68 | 1013.0 |
| 20260905165723 | 32 | 304 | 4.8 | 6.4 | 0.00 | 0.03 | 0.00 | 68 | 1013.2 |
| 20260905165223 | 32 | 0 | 6.4 | 6.4 | 0.00 | 0.03 | 0.00 | 68 | 1013.2 |
| 20260905165156 | 32 | 352 | 6.4 | 8.0 | 0.00 | 0.03 | 0.00 | 68 | 1013.2 |
| 20260905164723 | 32 | 357 | 3.2 | 9.7 | 0.00 | 0.03 | 0.00 | 68 | 1013.2 |
| 20260905164224 | 32 | 357 | 4.8 | 6.4 | 0.00 | 0.03 | 0.00 | 70 | 1013.3 |
| 20260905164156 | 32 | 44 | 6.4 | 8.0 | 0.00 | 0.03 | 0.00 | 70 | 1013.3 |
| 20260905163722 | 32 | 24 | 4.8 | 6.4 | 0.00 | 0.03 | 0.00 | 69 | 1013.3 |
| 20260905163223 | 32 | 37 | 0.0 | 1.6 | 0.00 | 0.03 | 0.00 | 69 | 1013.3 |
| 20260905163156 | 32 | 359 | 1.6 | 6.4 | 0.00 | 0.03 | 0.00 | 69 | 1013.3 |
| 20260905162724 | 32 | 27 | 1.6 | 4.8 | 0.00 | 0.03 | 0.00 | 68 | 1013.4 |
| 20260905162223 | 32 | 352 | 1.6 | 9.7 | 0.00 | 0.03 | 0.00 | 69 | 1013.4 |
| 20260905162156 | 32 | 1 | 3.2 | 6.4 | 0.00 | 0.03 | 0.00 | 69 | 1013.4 |
| 20260905161724 | 32 | 0 | 9.7 | 9.7 | 0.00 | 0.03 | 0.00 | 69 | 1013.4 |
| 20260905161222 | 32 | 316 | 0.0 | 4.8 | 0.00 | 0.03 | 0.00 | 69 | 1013.4 |
| 20260905161156 | 32 | 335 | 4.8 | 8.0 | 0.00 | 0.03 | 0.00 | 69 | 1013.4 |
| 20260905160723 | 32 | 10 | 3.2 | 8.0 | 0.00 | 0.03 | 0.00 | 68 | 1013.4 |
| 20260905160224 | 32 | 271 | 0.0 | 3.2 | 0.00 | 0.03 | 0.00 | 70 | 1013.4 |
| 20260905160157 | 32 | 357 | 1.6 | 4.8 | 0.00 | 0.03 | 0.00 | 71 | 1013.4 |
| 20260905155723 | 31 | 1 | 0.0 | 4.8 | 0.00 | 0.03 | 0.00 | 70 | 1013.4 |
| 20260905155224 | 31 | 352 | 6.4 | 6.4 | 0.00 | 0.03 | 0.00 | 73 | 1013.4 |
| 20260905155157 | 31 | 16 | 3.2 | 4.8 | 0.00 | 0.03 | 0.00 | 73 | 1013.4 |
| 20260905154723 | 31 | 51 | 0.0 | 1.6 | 0.00 | 0.03 | 0.00 | 74 | 1013.4 |
| 20260905154223 | 31 | 359 | 1.6 | 4.8 | 0.00 | 0.03 | 0.00 | 74 | 1013.6 |
| 20260905154157 | 31 | 319 | 1.6 | 3.2 | 0.00 | 0.03 | 0.00 | 74 | 1013.6 |
| 20260905153724 | 31 | 342 | 8.0 | 8.0 | 0.00 | 0.03 | 0.00 | 74 | 1013.6 |
| 20260905153223 | 31 | 315 | 0.0 | 3.2 | 0.00 | 0.03 | 0.00 | 75 | 1013.6 |
| 20260905153156 | 31 | 320 | 3.2 | 3.2 | 0.00 | 0.03 | 0.00 | 75 | 1013.6 |
| 20260905152722 | 31 | 343 | 4.8 | 4.8 | 0.00 | 0.03 | 0.00 | 75 | 1013.6 |
| 20260905152223 | 31 | 302 | 0.0 | 3.2 | 0.00 | 0.03 | 0.00 | 75 | 1013.6 |
| 20260905152155 | 30 | 292 | 3.2 | 4.8 | 0.00 | 0.03 | 0.00 | 75 | 1013.6 |
| 20260905151724 | 30 | 350 | 4.8 | 4.8 | 0.00 | 0.03 | 0.00 | 75 | 1013.6 |
| 20260905151222 | 30 | 340 | 4.8 | 8.0 | 0.00 | 0.03 | 0.00 | 76 | 1013.5 |
| 20260905151155 | 30 | 342 | 4.8 | 4.8 | 0.00 | 0.03 | 0.00 | 76 | 1013.5 |
| 20260905150723 | 30 | 0 | 3.2 | 4.8 | 0.00 | 0.03 | 0.00 | 77 | 1013.5 |
| 20260905150224 | 30 | 356 | 1.6 | 1.6 | 0.00 | 0.03 | 0.00 | 76 | 1013.5 |
| 20260905150200 | 30 | 326 | 0.0 | 3.2 | 0.00 | 0.03 | 0.00 | 76 | 1013.5 |
| 20260905145722 | 30 | 352 | 3.2 | 4.8 | 0.00 | 0.03 | 0.00 | 79 | 1013.6 |
| 20260905145223 | 30 | 42 | 1.6 | 1.6 | 0.00 | 0.03 | 0.00 | 78 | 1013.6 |
| 20260905145156 | 30 | 329 | 0.0 | 1.6 | 0.00 | 0.03 | 0.00 | 78 | 1013.6 |
| 20260905144724 | 30 | 0 | 1.6 | 3.2 | 0.00 | 0.03 | 0.00 | 78 | 1013.6 |
| 20260905144222 | 30 | 359 | 4.8 | 6.4 | 0.00 | 0.03 | 0.00 | 79 | 1013.7 |
| 20260905144155 | 30 | 339 | 0.0 | 4.8 | 0.00 | 0.03 | 0.00 | 79 | 1013.7 |
| 20260905143723 | 29 | 343 | 4.8 | 6.4 | 0.00 | 0.03 | 0.00 | 79 | 1013.7 |
| 20260905143222 | 29 | 312 | 0.0 | 6.4 | 0.00 | 0.03 | 0.00 | 80 | 1013.7 |
| 20260905143155 | 29 | 332 | 4.8 | 6.4 | 0.00 | 0.03 | 0.00 | 80 | 1013.7 |
| 20260905142723 | 29 | 356 | 3.2 | 6.4 | 0.00 | 0.03 | 0.00 | 81 | 1013.6 |
| 20260905142224 | 28 | 354 | 0.0 | 1.6 | 0.00 | 0.03 | 0.00 | 81 | 1013.6 |
| 20260905142158 | 28 | 354 | 3.2 | 4.8 | 0.00 | 0.03 | 0.00 | 81 | 1013.6 |
| 20260905141722 | 28 | 349 | 3.2 | 4.8 | 0.00 | 0.03 | 0.00 | 82 | 1013.6 |
| 20260905141223 | 28 | 353 | 3.2 | 4.8 | 0.00 | 0.03 | 0.00 | 83 | 1013.7 |
| 20260905141156 | 28 | 353 | 1.6 | 3.2 | 0.00 | 0.03 | 0.00 | 83 | 1013.7 |
| 20260905140724 | 28 | 44 | 1.6 | 3.2 | 0.00 | 0.03 | 0.00 | 83 | 1013.7 |
| 20260905140223 | 28 | 353 | 4.8 | 4.8 | 0.00 | 0.03 | 0.00 | 85 | 1013.7 |
| 20260905140156 | 28 | 356 | 0.0 | 3.2 | 0.00 | 0.03 | 0.00 | 85 | 1013.7 |
| 20260905135722 | 27 | 332 | 3.2 | 6.4 | 0.00 | 0.03 | 0.00 | 86 | 1013.8 |
| 20260905135223 | 27 | 352 | 3.2 | 4.8 | 0.00 | 0.03 | 0.00 | 87 | 1013.8 |
| 20260905135155 | 27 | 4 | 4.8 | 8.0 | 0.00 | 0.03 | 0.00 | 87 | 1013.8 |
| 20260905134723 | 27 | 0 | 1.6 | 4.8 | 0.00 | 0.03 | 0.00 | 87 | 1013.8 |
| 20260905134222 | 27 | 350 | 4.8 | 4.8 | 0.00 | 0.03 | 0.00 | 89 | 1014.0 |
| 20260905134158 | 26 | 24 | 1.6 | 4.8 | 0.00 | 0.03 | 0.00 | 89 | 1014.0 |
| 20260905133723 | 26 | 356 | 0.0 | 4.8 | 0.00 | 0.03 | 0.00 | 90 | 1014.0 |
| 20260905133248 | 26 | 356 | 4.8 | 6.4 | 0.00 | 0.03 | 0.00 | 90 | 1014.0 |
| 20260905133223 | 26 | 342 | 6.4 | 6.4 | 0.00 | 0.03 | 0.00 | 90 | 1014.0 |
| 20260905133158 | 26 | 356 | 4.8 | 6.4 | 0.00 | 0.03 | 0.00 | 90 | 1014.0 |
| 20260905132723 | 26 | 343 | 1.6 | 4.8 | 0.00 | 0.03 | 0.00 | 91 | 1014.1 |
| 20260905132224 | 26 | 356 | 3.2 | 3.2 | 0.00 | 0.03 | 0.00 | 93 | 1014.1 |
| 20260905132202 | 26 | 352 | 1.6 | 1.6 | 0.00 | 0.03 | 0.00 | 93 | 1014.1 |
| 20260905131722 | 26 | 353 | 0.0 | 1.6 | 0.00 | 0.03 | 0.00 | 94 | 1014.1 |
| 20260905131223 | 25 | 343 | 3.2 | 3.2 | 0.00 | 0.03 | 0.00 | 95 | 1014.0 |
| 20260905131156 | 25 | 326 | 0.0 | 1.6 | 0.00 | 0.03 | 0.00 | 95 | 1014.0 |
| 20260905130723 | 25 | 352 | 1.6 | 1.6 | 0.00 | 0.03 | 0.00 | 96 | 1014.0 |
| 20260905130222 | 25 | 332 | 3.2 | 4.8 | 0.00 | 0.03 | 0.00 | 98 | 1014.0 |
| 20260905130200 | 25 | 343 | 0.0 | 3.2 | 0.00 | 0.03 | 0.00 | 98 | 1014.0 |
| 20260905125723 | 25 | 354 | 4.8 | 4.8 | 0.00 | 0.03 | 0.00 | 100 | 1014.2 |
| 20260905125223 | 24 | 328 | 0.0 | 3.2 | 0.00 | 0.03 | 0.00 | 100 | 1014.2 |
| 20260905125156 | 24 | 346 | 3.2 | 4.8 | 0.00 | 0.03 | 0.00 | 100 | 1014.2 |
| 20260905124722 | 24 | 333 | 1.6 | 4.8 | 0.00 | 0.03 | 0.00 | 100 | 1014.2 |
| 20260905124223 | 23 | 359 | 1.6 | 3.2 | 0.00 | 0.03 | 0.00 | 100 | 1014.2 |
| 20260905124156 | 23 | 353 | 3.2 | 4.8 | 0.00 | 0.03 | 0.00 | 100 | 1014.2 |
| 20260905123723 | 23 | 350 | 0.0 | 1.6 | 0.00 | 0.03 | 0.00 | 100 | 1014.2 |
| 20260905123224 | 23 | 229 | 0.0 | 0.0 | 0.00 | 0.03 | 0.00 | 100 | 1014.2 |
| 20260905123157 | 23 | 229 | 0.0 | 0.0 | 0.00 | 0.03 | 0.00 | 100 | 1014.2 |
| 20260905122723 | 23 | 229 | 0.0 | 0.0 | 0.00 | 0.03 | 0.00 | 100 | 1014.0 |
| 20260905122223 | 23 | 229 | 0.0 | 0.0 | 0.00 | 0.03 | 0.00 | 100 | 1014.0 |
| 20260905122156 | 23 | 229 | 0.0 | 0.0 | 0.00 | 0.03 | 0.00 | 100 | 1014.0 |
| 20260905121723 | 23 | 229 | 0.0 | 0.0 | 0.00 | 0.03 | 0.00 | 100 | 1014.0 |
| 20260905121223 | 23 | 229 | 0.0 | 0.0 | 0.00 | 0.03 | 0.00 | 100 | 1013.8 |
| 20260905121156 | 23 | 229 | 0.0 | 0.0 | 0.00 | 0.03 | 0.00 | 100 | 1013.8 |
| 20260905120724 | 23 | 229 | 0.0 | 0.0 | 0.00 | 0.03 | 0.00 | 100 | 1013.8 |
| 20260905120222 | 23 | 229 | 0.0 | 0.0 | 0.00 | 0.03 | 0.00 | 100 | 1013.8 |
| 20260905120158 | 23 | 229 | 0.0 | 0.0 | 0.00 | 0.03 | 0.00 | 100 | 1013.8 |
| 20260905115722 | 23 | 229 | 0.0 | 0.0 | 0.00 | 0.03 | 0.00 | 100 | 1013.7 |
| 20260905115222 | 23 | 229 | 0.0 | 0.0 | 0.00 | 0.03 | 0.00 | 100 | 1013.7 |
| 20260905115156 | 23 | 229 | 0.0 | 0.0 | 0.00 | 0.03 | 0.00 | 100 | 1013.7 |
| 20260905114722 | 23 | 229 | 0.0 | 0.0 | 0.00 | 0.03 | 0.00 | 100 | 1013.7 |
| 20260905114230 | 23 | 229 | 0.0 | 0.0 | 0.00 | 0.03 | 0.00 | 100 | 1013.5 |
| 20260905114223 | 23 | 229 | 0.0 | 0.0 | 0.00 | 0.03 | 0.00 | 100 | 1013.5 |
| 20260905114157 | 23 | 229 | 0.0 | 0.0 | 0.00 | 0.03 | 0.00 | 100 | 1013.5 |
| 20260905113723 | 23 | 220 | 0.0 | 0.0 | 0.00 | 0.03 | 0.00 | 99 | 1013.5 |
| 20260905113222 | 23 | 220 | 0.0 | 0.0 | 0.00 | 0.03 | 0.00 | 99 | 1013.5 |
| 20260905113204 | 23 | 220 | 0.0 | 1.6 | 0.00 | 0.03 | 0.00 | 99 | 1013.5 |
| 20260905112722 | 23 | 222 | 1.6 | 1.6 | 0.00 | 0.03 | 0.00 | 99 | 1013.3 |
| 20260905112222 | 23 | 241 | 0.0 | 0.0 | 0.00 | 0.03 | 0.00 | 99 | 1013.3 |
| 20260905112202 | 23 | 241 | 0.0 | 0.0 | 0.00 | 0.03 | 0.00 | 99 | 1013.3 |
| 20260905111724 | 23 | 241 | 0.0 | 0.0 | 0.00 | 0.03 | 0.00 | 99 | 1013.3 |
| 20260905111223 | 23 | 260 | 0.0 | 1.6 | 0.00 | 0.03 | 0.00 | 99 | 1013.2 |
| 20260905111157 | 23 | 258 | 1.6 | 1.6 | 0.00 | 0.03 | 0.00 | 98 | 1013.2 |
| 20260905110723 | 23 | 301 | 0.0 | 3.2 | 0.00 | 0.03 | 0.00 | 98 | 1013.2 |
| 20260905110222 | 23 | 309 | 1.6 | 1.6 | 0.00 | 0.03 | 0.00 | 98 | 1013.2 |
| 20260905105722 | 23 | 301 | 1.6 | 1.6 | 0.00 | 0.03 | 0.00 | 98 | 1013.1 |
| 20260905105231 | 23 | 304 | 0.0 | 3.2 | 0.00 | 0.03 | 0.00 | 97 | 1013.1 |
| 20260905105222 | 23 | 319 | 0.0 | 3.2 | 0.00 | 0.03 | 0.00 | 97 | 1013.1 |
| 20260905105158 | 23 | 304 | 0.0 | 3.2 | 0.00 | 0.03 | 0.00 | 97 | 1013.1 |
| 20260905104723 | 23 | 302 | 1.6 | 3.2 | 0.00 | 0.03 | 0.00 | 97 | 1013.1 |
| 20260905104222 | 23 | 328 | 0.0 | 1.6 | 0.00 | 0.03 | 0.00 | 97 | 1013.1 |
| 20260905104156 | 23 | 316 | 1.6 | 1.6 | 0.00 | 0.03 | 0.00 | 97 | 1013.1 |
| 20260905103722 | 24 | 353 | 0.0 | 1.6 | 0.00 | 0.03 | 0.00 | 97 | 1013.1 |
| 20260905103223 | 24 | 316 | 0.0 | 3.2 | 0.00 | 0.03 | 0.00 | 97 | 1013.1 |
| 20260905103157 | 24 | 298 | 1.6 | 1.6 | 0.00 | 0.03 | 0.00 | 97 | 1013.1 |
| 20260905102724 | 24 | 304 | 1.6 | 1.6 | 0.00 | 0.03 | 0.00 | 97 | 1013.1 |
| 20260905102242 | 24 | 301 | 1.6 | 3.2 | 0.00 | 0.03 | 0.00 | 96 | 1013.1 |
| 20260905102222 | 24 | 295 | 1.6 | 1.6 | 0.00 | 0.03 | 0.00 | 96 | 1013.1 |
| 20260905102157 | 24 | 301 | 1.6 | 3.2 | 0.00 | 0.03 | 0.00 | 96 | 1013.1 |
| 20260905101723 | 24 | 342 | 3.2 | 3.2 | 0.00 | 0.03 | 0.00 | 96 | 1013.1 |
| 20260905101224 | 24 | 281 | 1.6 | 3.2 | 0.00 | 0.03 | 0.00 | 96 | 1013.0 |
| 20260905101159 | 24 | 288 | 3.2 | 3.2 | 0.00 | 0.03 | 0.00 | 96 | 1013.0 |
| 20260905100722 | 24 | 277 | 3.2 | 3.2 | 0.00 | 0.03 | 0.00 | 96 | 1013.0 |
| 20260905100222 | 24 | 308 | 3.2 | 8.0 | 0.00 | 0.03 | 0.00 | 96 | 1013.0 |
| 20260905100157 | 24 | 292 | 3.2 | 4.8 | 0.00 | 0.03 | 0.00 | 96 | 1013.0 |
| 20260905095723 | 24 | 287 | 1.6 | 4.8 | 0.00 | 0.03 | 0.00 | 96 | 1013.0 |
| 20260905095223 | 24 | 275 | 0.0 | 3.2 | 0.00 | 0.03 | 0.00 | 96 | 1013.0 |
| 20260905095157 | 24 | 301 | 3.2 | 4.8 | 0.00 | 0.03 | 0.00 | 96 | 1013.0 |
| 20260905094722 | 24 | 280 | 1.6 | 1.6 | 0.00 | 0.03 | 0.00 | 96 | 1013.0 |
| 20260905094223 | 24 | 267 | 0.0 | 3.2 | 0.00 | 0.03 | 0.00 | 95 | 1012.9 |
| 20260905094157 | 24 | 292 | 4.8 | 6.4 | 0.00 | 0.03 | 0.00 | 95 | 1012.9 |
| 20260905093723 | 24 | 294 | 3.2 | 3.2 | 0.00 | 0.03 | 0.00 | 95 | 1012.9 |
| 20260905093222 | 24 | 253 | 0.0 | 1.6 | 0.00 | 0.03 | 0.00 | 95 | 1012.9 |
| 20260905093157 | 24 | 253 | 0.0 | 1.6 | 0.00 | 0.03 | 0.00 | 95 | 1012.9 |
| 20260905092723 | 24 | 248 | 0.0 | 1.6 | 0.00 | 0.03 | 0.00 | 95 | 1012.9 |
| 20260905092223 | 24 | 253 | 3.2 | 4.8 | 0.00 | 0.03 | 0.00 | 94 | 1012.9 |
| 20260905092156 | 24 | 257 | 1.6 | 4.8 | 0.00 | 0.03 | 0.00 | 94 | 1012.9 |
| 20260905091724 | 24 | 246 | 0.0 | 0.0 | 0.00 | 0.03 | 0.00 | 94 | 1012.9 |
| 20260905091223 | 24 | 246 | 0.0 | 1.6 | 0.00 | 0.03 | 0.00 | 93 | 1012.8 |
| 20260905091155 | 24 | 246 | 1.6 | 3.2 | 0.00 | 0.03 | 0.00 | 93 | 1012.8 |
| 20260905090723 | 25 | 244 | 0.0 | 0.0 | 0.00 | 0.03 | 0.00 | 93 | 1012.8 |
| 20260905090224 | 25 | 232 | 0.0 | 0.0 | 0.00 | 0.03 | 0.00 | 92 | 1012.8 |
| 20260905090158 | 25 | 232 | 0.0 | 0.0 | 0.00 | 0.03 | 0.00 | 92 | 1012.8 |
| 20260905085723 | 25 | 246 | 1.6 | 3.2 | 0.00 | 0.03 | 0.00 | 92 | 1012.6 |
| 20260905085223 | 25 | 209 | 0.0 | 0.0 | 0.00 | 0.03 | 0.00 | 92 | 1012.6 |
| 20260905085156 | 25 | 209 | 0.0 | 1.6 | 0.00 | 0.03 | 0.00 | 91 | 1012.6 |
| 20260905084724 | 25 | 322 | 0.0 | 1.6 | 0.00 | 0.03 | 0.00 | 91 | 1012.6 |
| 20260905084223 | 25 | 250 | 0.0 | 3.2 | 0.00 | 0.03 | 0.00 | 91 | 1012.4 |
| 20260905084155 | 25 | 291 | 0.0 | 0.0 | 0.00 | 0.03 | 0.00 | 91 | 1012.4 |
| 20260905083723 | 25 | 265 | 4.8 | 4.8 | 0.00 | 0.03 | 0.00 | 91 | 1012.4 |
| 20260905083224 | 25 | 277 | 1.6 | 1.6 | 0.00 | 0.03 | 0.00 | 91 | 1012.4 |
| 20260905083156 | 25 | 254 | 0.0 | 3.2 | 0.00 | 0.03 | 0.00 | 91 | 1012.4 |
| 20260905082722 | 25 | 254 | 0.0 | 1.6 | 0.00 | 0.03 | 0.00 | 91 | 1012.4 |
| 20260905082227 | 25 | 243 | 0.0 | 0.0 | 0.00 | 0.03 | 0.00 | 91 | 1012.4 |
| 20260905082223 | 25 | 243 | 0.0 | 0.0 | 0.00 | 0.03 | 0.00 | 91 | 1012.4 |
| 20260905082156 | 25 | 243 | 0.0 | 0.0 | 0.00 | 0.03 | 0.00 | 91 | 1012.4 |
| 20260905081724 | 25 | 243 | 0.0 | 0.0 | 0.00 | 0.03 | 0.00 | 91 | 1012.4 |
| 20260905081550 | 25 | 253 | 0.0 | 0.0 | 0.00 | 0.03 | 0.00 | 91 | 1012.3 |
| 20260905081223 | 25 | 253 | 0.0 | 0.0 | 0.00 | 0.03 | 0.00 | 91 | 1012.3 |
| 20260905081157 | 25 | 253 | 0.0 | 0.0 | 0.00 | 0.03 | 0.00 | 91 | 1012.3 |
| 20260905080724 | 25 | 260 | 0.0 | 0.0 | 0.00 | 0.03 | 0.00 | 91 | 1012.3 |
| 20260905080223 | 25 | 257 | 1.6 | 3.2 | 0.00 | 0.03 | 0.00 | 91 | 1012.3 |
| 20260905080155 | 25 | 271 | 0.0 | 1.6 | 0.00 | 0.03 | 0.00 | 91 | 1012.3 |
| 20260905075723 | 25 | 257 | 3.2 | 3.2 | 0.00 | 0.03 | 0.00 | 92 | 1012.3 |
| 20260905075224 | 25 | 243 | 0.0 | 0.0 | 0.00 | 0.03 | 0.00 | 92 | 1012.3 |
| 20260905075157 | 25 | 227 | 0.0 | 0.0 | 0.00 | 0.03 | 0.00 | 92 | 1012.3 |
| 20260905074723 | 25 | 192 | 0.0 | 0.0 | 0.00 | 0.03 | 0.00 | 91 | 1012.3 |
| 20260905074222 | 25 | 253 | 0.0 | 0.0 | 0.00 | 0.03 | 0.00 | 91 | 1012.3 |
| 20260905074155 | 25 | 253 | 0.0 | 0.0 | 0.00 | 0.03 | 0.00 | 91 | 1012.3 |
| 20260905073724 | 25 | 257 | 0.0 | 0.0 | 0.00 | 0.03 | 0.00 | 91 | 1012.3 |
| 20260905073222 | 25 | 251 | 1.6 | 1.6 | 0.00 | 0.03 | 0.00 | 91 | 1012.3 |
| 20260905073155 | 25 | 250 | 0.0 | 1.6 | 0.00 | 0.03 | 0.00 | 91 | 1012.3 |
| 20260905072723 | 25 | 256 | 3.2 | 3.2 | 0.00 | 0.03 | 0.00 | 91 | 1012.2 |
| 20260905072224 | 25 | 203 | 0.0 | 0.0 | 0.00 | 0.03 | 0.00 | 90 | 1012.2 |
| 20260905072156 | 25 | 203 | 0.0 | 0.0 | 0.00 | 0.03 | 0.00 | 90 | 1012.2 |
| 20260905071722 | 25 | 203 | 0.0 | 0.0 | 0.00 | 0.03 | 0.00 | 89 | 1012.2 |
| 20260905071223 | 26 | 203 | 0.0 | 0.0 | 0.00 | 0.03 | 0.00 | 89 | 1012.3 |
| 20260905071156 | 26 | 203 | 0.0 | 0.0 | 0.00 | 0.03 | 0.00 | 88 | 1012.3 |
| 20260905070723 | 26 | 203 | 0.0 | 0.0 | 0.00 | 0.03 | 0.00 | 88 | 1012.3 |
| 20260905070224 | 26 | 203 | 0.0 | 0.0 | 0.00 | 0.03 | 0.00 | 87 | 1012.3 |
| 20260905070158 | 26 | 203 | 0.0 | 0.0 | 0.00 | 0.03 | 0.00 | 87 | 1012.3 |
| 20260905065722 | 26 | 203 | 0.0 | 0.0 | 0.00 | 0.03 | 0.00 | 86 | 1012.3 |
| 20260905065223 | 26 | 203 | 0.0 | 0.0 | 0.00 | 0.03 | 0.00 | 86 | 1012.3 |
| 20260905065158 | 26 | 203 | 0.0 | 0.0 | 0.00 | 0.03 | 0.00 | 86 | 1012.3 |
| 20260905064724 | 26 | 203 | 0.0 | 0.0 | 0.00 | 0.03 | 0.00 | 85 | 1012.3 |
| 20260905064222 | 26 | 189 | 0.0 | 0.0 | 0.00 | 0.03 | 0.00 | 84 | 1012.1 |
| 20260905064201 | 26 | 185 | 0.0 | 0.0 | 0.00 | 0.03 | 0.00 | 84 | 1012.1 |
| 20260905063723 | 26 | 117 | 0.0 | 0.0 | 0.00 | 0.03 | 0.00 | 83 | 1012.1 |
| 20260905063224 | 26 | 117 | 0.0 | 0.0 | 0.00 | 0.03 | 0.00 | 83 | 1012.1 |
| 20260905063158 | 26 | 117 | 0.0 | 0.0 | 0.00 | 0.03 | 0.00 | 83 | 1012.1 |
| 20260905062722 | 26 | 117 | 0.0 | 0.0 | 0.00 | 0.03 | 0.00 | 84 | 1012.3 |
| 20260905062224 | 26 | 117 | 0.0 | 0.0 | 0.00 | 0.03 | 0.00 | 84 | 1012.3 |
| 20260905062159 | 26 | 117 | 0.0 | 0.0 | 0.00 | 0.03 | 0.00 | 85 | 1012.3 |
| 20260905061723 | 26 | 117 | 0.0 | 0.0 | 0.00 | 0.03 | 0.00 | 85 | 1012.3 |
| 20260905061223 | 26 | 117 | 0.0 | 0.0 | 0.00 | 0.03 | 0.00 | 86 | 1012.3 |
| 20260905061157 | 26 | 117 | 0.0 | 0.0 | 0.00 | 0.03 | 0.00 | 86 | 1012.3 |
| 20260905060724 | 26 | 117 | 0.0 | 0.0 | 0.00 | 0.03 | 0.00 | 86 | 1012.3 |
| 20260905060223 | 26 | 117 | 0.0 | 0.0 | 0.00 | 0.03 | 0.00 | 86 | 1012.3 |
| 20260905060159 | 26 | 117 | 0.0 | 0.0 | 0.00 | 0.03 | 0.00 | 86 | 1012.3 |
| 20260905055722 | 26 | 117 | 0.0 | 0.0 | 0.00 | 0.03 | 0.00 | 86 | 1012.3 |
| 20260905055223 | 26 | 117 | 0.0 | 0.0 | 0.00 | 0.03 | 0.00 | 86 | 1012.3 |
| 20260905055156 | 26 | 117 | 0.0 | 0.0 | 0.00 | 0.03 | 0.00 | 86 | 1012.3 |
| 20260905054724 | 26 | 117 | 0.0 | 0.0 | 0.00 | 0.03 | 0.00 | 86 | 1012.3 |
| 20260905054222 | 26 | 117 | 0.0 | 0.0 | 0.00 | 0.03 | 0.00 | 86 | 1012.5 |
| 20260905054156 | 26 | 117 | 0.0 | 0.0 | 0.00 | 0.03 | 0.00 | 86 | 1012.5 |
| 20260905053723 | 26 | 117 | 0.0 | 0.0 | 0.00 | 0.03 | 0.00 | 86 | 1012.5 |
| 20260905053223 | 26 | 117 | 0.0 | 0.0 | 0.00 | 0.03 | 0.00 | 85 | 1012.5 |
| 20260905053157 | 26 | 117 | 0.0 | 0.0 | 0.00 | 0.03 | 0.00 | 85 | 1012.5 |
| 20260905052722 | 27 | 117 | 0.0 | 0.0 | 0.00 | 0.03 | 0.00 | 84 | 1012.7 |
| 20260905052223 | 27 | 143 | 1.6 | 3.2 | 0.00 | 0.03 | 0.00 | 84 | 1012.7 |
| 20260905052155 | 27 | 143 | 0.0 | 1.6 | 0.00 | 0.03 | 0.00 | 84 | 1012.7 |
| 20260905051723 | 27 | 145 | 0.0 | 1.6 | 0.00 | 0.03 | 0.00 | 84 | 1012.7 |
| 20260905051247 | 27 | 133 | 1.6 | 3.2 | 0.00 | 0.03 | 0.00 | 83 | 1012.7 |
| 20260905051222 | 27 | 144 | 1.6 | 3.2 | 0.00 | 0.03 | 0.00 | 83 | 1012.7 |
| 20260905051157 | 27 | 133 | 1.6 | 3.2 | 0.00 | 0.03 | 0.00 | 83 | 1012.7 |
| 20260905050723 | 27 | 107 | 0.0 | 0.0 | 0.00 | 0.03 | 0.00 | 82 | 1012.7 |
| 20260905050222 | 27 | 95 | 1.6 | 3.2 | 0.00 | 0.03 | 0.00 | 82 | 1012.7 |
| 20260905050155 | 27 | 95 | 1.6 | 1.6 | 0.00 | 0.03 | 0.00 | 82 | 1012.7 |
| 20260905045723 | 27 | 95 | 0.0 | 0.0 | 0.00 | 0.03 | 0.03 | 82 | 1012.6 |
| 20260905045224 | 27 | 95 | 0.0 | 0.0 | 0.00 | 0.03 | 0.03 | 81 | 1012.6 |
| 20260905045156 | 27 | 95 | 0.0 | 0.0 | 0.00 | 0.03 | 0.03 | 81 | 1012.6 |
| 20260905044722 | 27 | 95 | 0.0 | 0.0 | 0.00 | 0.03 | 0.03 | 81 | 1012.6 |
| 20260905044223 | 27 | 95 | 0.0 | 0.0 | 0.00 | 0.03 | 0.03 | 80 | 1012.7 |
| 20260905044157 | 27 | 95 | 0.0 | 0.0 | 0.00 | 0.03 | 0.03 | 80 | 1012.7 |
| 20260905043724 | 27 | 95 | 1.6 | 3.2 | 0.00 | 0.03 | 0.03 | 80 | 1012.7 |
| 20260905043222 | 27 | 95 | 0.0 | 0.0 | 0.00 | 0.03 | 0.03 | 79 | 1012.7 |
| 20260905043156 | 27 | 95 | 0.0 | 1.6 | 0.00 | 0.03 | 0.03 | 79 | 1012.7 |
| 20260905042723 | 27 | 76 | 1.6 | 1.6 | 0.00 | 0.03 | 0.03 | 77 | 1012.7 |
| 20260905042224 | 28 | 100 | 1.6 | 1.6 | 0.00 | 0.03 | 0.03 | 77 | 1012.7 |
| 20260905042157 | 28 | 100 | 1.6 | 3.2 | 0.00 | 0.03 | 0.03 | 77 | 1012.7 |
| 20260905041722 | 28 | 112 | 0.0 | 0.0 | 0.00 | 0.03 | 0.03 | 77 | 1012.7 |
| 20260905041223 | 28 | 104 | 1.6 | 1.6 | 0.00 | 0.03 | 0.03 | 77 | 1012.8 |
| 20260905041158 | 28 | 104 | 0.0 | 1.6 | 0.00 | 0.03 | 0.03 | 77 | 1012.8 |
| 20260905040723 | 28 | 107 | 1.6 | 1.6 | 0.00 | 0.03 | 0.03 | 77 | 1012.8 |
| 20260905040223 | 28 | 89 | 1.6 | 1.6 | 0.00 | 0.03 | 0.03 | 76 | 1012.8 |
| 20260905040156 | 28 | 89 | 0.0 | 3.2 | 0.00 | 0.03 | 0.03 | 76 | 1012.8 |
| 20260905035723 | 28 | 89 | 0.0 | 1.6 | 0.00 | 0.03 | 0.03 | 76 | 1012.9 |
| 20260905035222 | 28 | 90 | 1.6 | 3.2 | 0.00 | 0.03 | 0.03 | 76 | 1012.9 |
| 20260905035155 | 28 | 100 | 1.6 | 3.2 | 0.00 | 0.03 | 0.03 | 76 | 1012.9 |
| 20260905034723 | 28 | 78 | 1.6 | 3.2 | 0.00 | 0.03 | 0.03 | 76 | 1012.9 |
| 20260905034222 | 28 | 64 | 1.6 | 4.8 | 0.00 | 0.03 | 0.03 | 76 | 1013.0 |
| 20260905034159 | 28 | 83 | 3.2 | 3.2 | 0.00 | 0.03 | 0.03 | 75 | 1013.0 |
| 20260905033722 | 28 | 68 | 1.6 | 1.6 | 0.00 | 0.03 | 0.03 | 75 | 1013.0 |
| 20260905033223 | 28 | 73 | 1.6 | 1.6 | 0.00 | 0.03 | 0.03 | 75 | 1013.0 |
| 20260905033156 | 28 | 80 | 1.6 | 1.6 | 0.00 | 0.03 | 0.03 | 75 | 1013.0 |
| 20260905032722 | 28 | 82 | 3.2 | 3.2 | 0.00 | 0.03 | 0.03 | 75 | 1013.2 |
| 20260905032222 | 28 | 64 | 0.0 | 1.6 | 0.00 | 0.03 | 0.03 | 75 | 1013.2 |
| 20260905032155 | 28 | 64 | 0.0 | 1.6 | 0.00 | 0.03 | 0.03 | 75 | 1013.2 |
| 20260905031723 | 28 | 64 | 3.2 | 3.2 | 0.00 | 0.03 | 0.03 | 75 | 1013.2 |
| 20260905031222 | 28 | 80 | 1.6 | 3.2 | 0.00 | 0.03 | 0.03 | 75 | 1013.4 |
| 20260905031157 | 28 | 106 | 1.6 | 1.6 | 0.00 | 0.03 | 0.03 | 75 | 1013.4 |
| 20260905030723 | 28 | 86 | 1.6 | 1.6 | 0.00 | 0.03 | 0.03 | 75 | 1013.4 |
| 20260905030222 | 28 | 97 | 0.0 | 1.6 | 0.00 | 0.03 | 0.03 | 74 | 1013.4 |
| 20260905030157 | 28 | 65 | 0.0 | 3.2 | 0.00 | 0.03 | 0.03 | 74 | 1013.4 |
| 20260905025723 | 28 | 78 | 1.6 | 3.2 | 0.00 | 0.03 | 0.03 | 75 | 1013.5 |
| 20260905025223 | 28 | 48 | 1.6 | 3.2 | 0.00 | 0.03 | 0.03 | 74 | 1013.5 |
| 20260905025156 | 28 | 83 | 1.6 | 3.2 | 0.00 | 0.03 | 0.03 | 74 | 1013.5 |
| 20260905024723 | 28 | 79 | 3.2 | 3.2 | 0.00 | 0.03 | 0.03 | 75 | 1013.5 |
| 20260905024222 | 28 | 56 | 3.2 | 3.2 | 0.00 | 0.03 | 0.03 | 74 | 1013.6 |
| 20260905024157 | 28 | 69 | 1.6 | 3.2 | 0.00 | 0.03 | 0.03 | 74 | 1013.6 |
| 20260905023722 | 28 | 83 | 3.2 | 3.2 | 0.00 | 0.03 | 0.03 | 74 | 1013.6 |
| 20260905023223 | 28 | 73 | 1.6 | 3.2 | 0.00 | 0.03 | 0.03 | 74 | 1013.6 |
| 20260905023156 | 28 | 68 | 1.6 | 3.2 | 0.00 | 0.03 | 0.03 | 74 | 1013.6 |
| 20260905022722 | 28 | 100 | 3.2 | 3.2 | 0.00 | 0.03 | 0.03 | 74 | 1013.4 |
| 20260905022222 | 28 | 32 | 1.6 | 3.2 | 0.00 | 0.03 | 0.03 | 74 | 1013.4 |
| 20260905022155 | 28 | 65 | 1.6 | 1.6 | 0.00 | 0.03 | 0.03 | 74 | 1013.4 |
| 20260905021722 | 28 | 55 | 1.6 | 1.6 | 0.00 | 0.03 | 0.03 | 74 | 1013.4 |
| 20260905021223 | 28 | 97 | 0.0 | 1.6 | 0.00 | 0.03 | 0.03 | 73 | 1013.5 |
| 20260905021156 | 28 | 107 | 1.6 | 3.2 | 0.00 | 0.03 | 0.03 | 73 | 1013.5 |
| 20260905020723 | 28 | 96 | 1.6 | 4.8 | 0.00 | 0.03 | 0.03 | 73 | 1013.5 |
| 20260905020222 | 28 | 76 | 3.2 | 4.8 | 0.00 | 0.03 | 0.03 | 73 | 1013.5 |
| 20260905020157 | 28 | 79 | 3.2 | 3.2 | 0.00 | 0.03 | 0.03 | 73 | 1013.5 |
| 20260905015723 | 28 | 61 | 0.0 | 0.0 | 0.00 | 0.03 | 0.03 | 73 | 1013.4 |
| 20260905015223 | 28 | 58 | 3.2 | 4.8 | 0.00 | 0.03 | 0.03 | 73 | 1013.4 |
| 20260905015156 | 28 | 37 | 1.6 | 3.2 | 0.00 | 0.03 | 0.03 | 73 | 1013.4 |
| 20260905014722 | 28 | 55 | 3.2 | 4.8 | 0.00 | 0.03 | 0.03 | 73 | 1013.4 |
| 20260905014224 | 28 | 16 | 0.0 | 1.6 | 0.00 | 0.03 | 0.03 | 73 | 1013.2 |
| 20260905014156 | 28 | 16 | 3.2 | 3.2 | 0.00 | 0.03 | 0.03 | 73 | 1013.2 |
| 20260905013722 | 28 | 16 | 1.6 | 3.2 | 0.00 | 0.03 | 0.03 | 73 | 1013.2 |
| 20260905013223 | 28 | 14 | 1.6 | 3.2 | 0.00 | 0.03 | 0.03 | 73 | 1013.2 |
| 20260905013156 | 28 | 10 | 3.2 | 3.2 | 0.00 | 0.03 | 0.03 | 73 | 1013.2 |
| 20260905012725 | 28 | 8 | 1.6 | 3.2 | 0.00 | 0.03 | 0.03 | 73 | 1013.1 |
| 20260905012223 | 29 | 8 | 1.6 | 4.8 | 0.00 | 0.03 | 0.03 | 73 | 1013.1 |
| 20260905012157 | 29 | 13 | 3.2 | 4.8 | 0.00 | 0.03 | 0.03 | 73 | 1013.1 |
| 20260905011724 | 29 | 17 | 3.2 | 3.2 | 0.00 | 0.03 | 0.03 | 74 | 1013.1 |
| 20260905011223 | 29 | 14 | 1.6 | 3.2 | 0.00 | 0.03 | 0.03 | 73 | 1013.1 |
| 20260905011156 | 29 | 14 | 1.6 | 3.2 | 0.00 | 0.03 | 0.03 | 73 | 1013.1 |
| 20260905010723 | 29 | 6 | 1.6 | 3.2 | 0.00 | 0.03 | 0.03 | 73 | 1013.1 |
| 20260905010223 | 29 | 0 | 3.2 | 3.2 | 0.00 | 0.03 | 0.03 | 74 | 1013.1 |
| 20260905010157 | 29 | 0 | 3.2 | 3.2 | 0.00 | 0.03 | 0.03 | 74 | 1013.1 |
| 20260905005724 | 29 | 0 | 3.2 | 3.2 | 0.00 | 0.03 | 0.03 | 73 | 1013.1 |
| 20260905005222 | 29 | 4 | 1.6 | 4.8 | 0.00 | 0.03 | 0.03 | 72 | 1013.1 |
| 20260905005156 | 29 | 6 | 3.2 | 4.8 | 0.00 | 0.03 | 0.03 | 72 | 1013.1 |
| 20260905004723 | 29 | 4 | 3.2 | 4.8 | 0.00 | 0.03 | 0.03 | 72 | 1013.1 |
| 20260905004224 | 29 | 356 | 3.2 | 4.8 | 0.00 | 0.03 | 0.03 | 73 | 1013.0 |
| 20260905004156 | 30 | 356 | 3.2 | 3.2 | 0.00 | 0.03 | 0.03 | 73 | 1013.0 |
| 20260905003722 | 30 | 357 | 1.6 | 3.2 | 0.03 | 0.03 | 0.03 | 73 | 1013.0 |
| 20260905003223 | 30 | 356 | 1.6 | 3.2 | 0.03 | 0.03 | 0.03 | 73 | 1013.0 |
| 20260905003157 | 30 | 357 | 1.6 | 3.2 | 0.03 | 0.03 | 0.03 | 73 | 1013.0 |
| 20260905002723 | 30 | 357 | 3.2 | 4.8 | 0.03 | 0.03 | 0.03 | 72 | 1013.1 |
| 20260905002224 | 30 | 0 | 3.2 | 4.8 | 0.03 | 0.03 | 0.03 | 70 | 1013.1 |
| 20260905002157 | 30 | 0 | 3.2 | 4.8 | 0.03 | 0.03 | 0.03 | 70 | 1013.1 |
| 20260905001723 | 30 | 0 | 3.2 | 4.8 | 0.03 | 0.03 | 0.03 | 70 | 1013.1 |
| 20260905001223 | 30 | 0 | 1.6 | 3.2 | 0.03 | 0.03 | 0.03 | 70 | 1013.0 |
| 20260905001156 | 30 | 0 | 1.6 | 3.2 | 0.03 | 0.03 | 0.03 | 70 | 1013.0 |
| 20260905000724 | 30 | 0 | 1.6 | 3.2 | 0.03 | 0.03 | 0.03 | 70 | 1013.0 |
| 20260905000222 | 30 | 0 | 0.0 | 0.0 | 0.03 | 0.03 | 0.03 | 70 | 1013.0 |
| 20260905000156 | 30 | 0 | 0.0 | 0.0 | 0.03 | 0.03 | 0.03 | 70 | 1013.0 |
| 20260904235723 | 30 | 0 | 0.0 | 0.0 | 0.03 | 0.03 | 0.03 | 71 | 1013.0 |
| 20260904235224 | 30 | 0 | 0.0 | 0.0 | 0.03 | 0.03 | 0.03 | 71 | 1013.0 |
| 20260904235156 | 31 | 0 | 0.0 | 0.0 | 0.03 | 0.03 | 0.03 | 71 | 1013.0 |
| 20260904234722 | 31 | 0 | 1.6 | 3.2 | 0.03 | 0.03 | 0.03 | 71 | 1013.0 |
| 20260904234235 | 31 | 10 | 1.6 | 3.2 | 0.03 | 0.03 | 0.03 | 70 | 1013.0 |
| 20260904234223 | 31 | 10 | 1.6 | 3.2 | 0.03 | 0.03 | 0.03 | 70 | 1013.0 |
| 20260904234156 | 31 | 10 | 1.6 | 3.2 | 0.03 | 0.03 | 0.03 | 70 | 1013.0 |
| 20260904233723 | 31 | 8 | 1.6 | 3.2 | 0.03 | 0.03 | 0.03 | 69 | 1013.0 |
| 20260904233222 | 31 | 59 | 1.6 | 1.6 | 0.00 | 0.00 | 0.00 | 69 | 1013.0 |
| 20260904233157 | 31 | 59 | 1.6 | 1.6 | 0.00 | 0.00 | 0.00 | 69 | 1013.0 |
| 20260904232723 | 31 | 59 | 0.0 | 0.0 | 0.00 | 0.00 | 0.00 | 69 | 1012.9 |
| 20260904232223 | 31 | 59 | 0.0 | 0.0 | 0.00 | 0.00 | 0.00 | 68 | 1012.9 |
| 20260904232156 | 31 | 59 | 0.0 | 0.0 | 0.00 | 0.00 | 0.00 | 68 | 1012.9 |
| 20260904231724 | 31 | 59 | 0.0 | 0.0 | 0.00 | 0.00 | 0.00 | 67 | 1012.9 |
| 20260904231223 | 31 | 49 | 0.0 | 0.0 | 0.00 | 0.00 | 0.00 | 67 | 1012.6 |
| 20260904231155 | 31 | 49 | 0.0 | 0.0 | 0.00 | 0.00 | 0.00 | 67 | 1012.6 |
| 20260904230723 | 32 | 49 | 0.0 | 1.6 | 0.00 | 0.00 | 0.00 | 67 | 1012.6 |
| 20260904230224 | 32 | 56 | 0.0 | 4.8 | 0.00 | 0.00 | 0.00 | 66 | 1012.6 |
| 20260904230157 | 32 | 59 | 3.2 | 4.8 | 0.00 | 0.00 | 0.00 | 66 | 1012.6 |
| 20260904225723 | 32 | 1 | 1.6 | 1.6 | 0.00 | 0.00 | 0.00 | 66 | 1012.6 |
| 20260904225223 | 32 | 31 | 1.6 | 1.6 | 0.00 | 0.00 | 0.00 | 65 | 1012.6 |
| 20260904225156 | 32 | 27 | 1.6 | 3.2 | 0.00 | 0.00 | 0.00 | 65 | 1012.6 |
| 20260904224723 | 32 | 0 | 1.6 | 1.6 | 0.00 | 0.00 | 0.00 | 65 | 1012.6 |
| 20260904224233 | 32 | 13 | 3.2 | 3.2 | 0.00 | 0.00 | 0.00 | 65 | 1012.5 |
| 20260904224223 | 32 | 17 | 0.0 | 3.2 | 0.00 | 0.00 | 0.00 | 65 | 1012.5 |
| 20260904224157 | 32 | 13 | 3.2 | 3.2 | 0.00 | 0.00 | 0.00 | 65 | 1012.5 |
| 20260904223724 | 32 | 1 | 3.2 | 3.2 | 0.00 | 0.00 | 0.00 | 64 | 1012.5 |
| 20260904223223 | 32 | 88 | 1.6 | 4.8 | 0.00 | 0.00 | 0.00 | 63 | 1012.5 |
| 20260904223155 | 32 | 76 | 1.6 | 4.8 | 0.00 | 0.00 | 0.00 | 63 | 1012.5 |
| 20260904222723 | 32 | 7 | 3.2 | 6.4 | 0.00 | 0.00 | 0.00 | 64 | 1012.5 |
| 20260904222224 | 32 | 76 | 1.6 | 4.8 | 0.00 | 0.00 | 0.00 | 64 | 1012.5 |
| 20260904222157 | 32 | 97 | 0.0 | 4.8 | 0.00 | 0.00 | 0.00 | 64 | 1012.5 |
| 20260904221722 | 32 | 75 | 1.6 | 3.2 | 0.00 | 0.00 | 0.00 | 62 | 1012.5 |
| 20260904221223 | 32 | 51 | 4.8 | 8.0 | 0.00 | 0.00 | 0.00 | 62 | 1012.3 |
| 20260904221156 | 32 | 90 | 6.4 | 6.4 | 0.00 | 0.00 | 0.00 | 62 | 1012.3 |
| 20260904220724 | 32 | 88 | 0.0 | 0.0 | 0.00 | 0.00 | 0.00 | 60 | 1012.3 |
| 20260904220222 | 32 | 136 | 1.6 | 1.6 | 0.00 | 0.00 | 0.00 | 63 | 1012.3 |
| 20260904220155 | 32 | 136 | 1.6 | 3.2 | 0.00 | 0.00 | 0.00 | 63 | 1012.3 |
| 20260904215723 | 32 | 62 | 1.6 | 1.6 | 0.00 | 0.00 | 0.00 | 63 | 1012.5 |
| 20260904215223 | 32 | 119 | 1.6 | 4.8 | 0.00 | 0.00 | 0.00 | 64 | 1012.5 |
| 20260904215156 | 32 | 97 | 4.8 | 4.8 | 0.00 | 0.00 | 0.00 | 64 | 1012.5 |
| 20260904214723 | 32 | 47 | 1.6 | 3.2 | 0.00 | 0.00 | 0.00 | 62 | 1012.5 |
| 20260904214222 | 33 | 65 | 4.8 | 4.8 | 0.00 | 0.00 | 0.00 | 62 | 1012.4 |
| 20260904214157 | 33 | 34 | 0.0 | 0.0 | 0.00 | 0.00 | 0.00 | 62 | 1012.4 |
| 20260904213722 | 33 | 104 | 4.8 | 4.8 | 0.00 | 0.00 | 0.00 | 61 | 1012.4 |
| 20260904213223 | 33 | 106 | 4.8 | 4.8 | 0.00 | 0.00 | 0.00 | 61 | 1012.4 |
| 20260904213156 | 33 | 86 | 4.8 | 8.0 | 0.00 | 0.00 | 0.00 | 61 | 1012.4 |
| 20260904212722 | 33 | 162 | 0.0 | 1.6 | 0.00 | 0.00 | 0.00 | 62 | 1012.4 |
| 20260904212222 | 33 | 69 | 1.6 | 3.2 | 0.00 | 0.00 | 0.00 | 60 | 1012.4 |
| 20260904212156 | 33 | 76 | 3.2 | 8.0 | 0.00 | 0.00 | 0.00 | 60 | 1012.4 |
| 20260904211722 | 33 | 51 | 4.8 | 6.4 | 0.00 | 0.00 | 0.00 | 58 | 1012.4 |
| 20260904211223 | 33 | 130 | 4.8 | 8.0 | 0.00 | 0.00 | 0.00 | 58 | 1012.6 |
| 20260904211156 | 33 | 109 | 3.2 | 4.8 | 0.00 | 0.00 | 0.00 | 58 | 1012.6 |
| 20260904210723 | 33 | 100 | 6.4 | 8.0 | 0.00 | 0.00 | 0.00 | 58 | 1012.6 |
| 20260904210222 | 33 | 49 | 8.0 | 11.3 | 0.00 | 0.00 | 0.00 | 57 | 1012.6 |
| 20260904210157 | 33 | 66 | 3.2 | 3.2 | 0.00 | 0.00 | 0.00 | 57 | 1012.6 |
| 20260904205723 | 33 | 45 | 3.2 | 3.2 | 0.00 | 0.00 | 0.00 | 61 | 1012.7 |
| 20260904205223 | 33 | 52 | 0.0 | 4.8 | 0.00 | 0.00 | 0.00 | 58 | 1012.7 |
| 20260904205156 | 33 | 82 | 4.8 | 4.8 | 0.00 | 0.00 | 0.00 | 58 | 1012.7 |
| 20260904204722 | 33 | 1 | 3.2 | 6.4 | 0.00 | 0.00 | 0.00 | 58 | 1012.7 |
| 20260904204222 | 33 | 64 | 6.4 | 8.0 | 0.00 | 0.00 | 0.00 | 57 | 1012.8 |
| 20260904204157 | 33 | 92 | 4.8 | 9.7 | 0.00 | 0.00 | 0.00 | 57 | 1012.8 |
| 20260904203722 | 34 | 112 | 6.4 | 6.4 | 0.00 | 0.00 | 0.00 | 54 | 1012.8 |
| 20260904203223 | 34 | 106 | 4.8 | 4.8 | 0.00 | 0.00 | 0.00 | 57 | 1012.8 |
| 20260904203157 | 34 | 97 | 1.6 | 4.8 | 0.00 | 0.00 | 0.00 | 57 | 1012.8 |
| 20260904202724 | 34 | 154 | 0.0 | 4.8 | 0.00 | 0.00 | 0.00 | 60 | 1013.1 |
| 20260904202222 | 33 | 114 | 4.8 | 8.0 | 0.00 | 0.00 | 0.00 | 58 | 1013.1 |
| 20260904202157 | 33 | 112 | 4.8 | 6.4 | 0.00 | 0.00 | 0.00 | 58 | 1013.1 |
| 20260904201723 | 33 | 155 | 1.6 | 3.2 | 0.00 | 0.00 | 0.00 | 59 | 1013.1 |
| 20260904201223 | 33 | 61 | 4.8 | 8.0 | 0.00 | 0.00 | 0.00 | 57 | 1013.3 |
| 20260904201156 | 33 | 89 | 8.0 | 9.7 | 0.00 | 0.00 | 0.00 | 57 | 1013.3 |
| 20260904200723 | 33 | 130 | 0.0 | 1.6 | 0.00 | 0.00 | 0.00 | 60 | 1013.3 |
| 20260904200222 | 33 | 62 | 4.8 | 6.4 | 0.00 | 0.00 | 0.00 | 58 | 1013.3 |
| 20260904200157 | 33 | 38 | 3.2 | 8.0 | 0.00 | 0.00 | 0.00 | 58 | 1013.3 |
| 20260904195723 | 33 | 78 | 3.2 | 4.8 | 0.00 | 0.00 | 0.00 | 58 | 1013.5 |
| 20260904195223 | 33 | 30 | 6.4 | 8.0 | 0.00 | 0.00 | 0.00 | 58 | 1013.5 |
| 20260904195156 | 33 | 359 | 8.0 | 11.3 | 0.00 | 0.00 | 0.00 | 58 | 1013.5 |
| 20260904194722 | 33 | 24 | 3.2 | 6.4 | 0.00 | 0.00 | 0.00 | 62 | 1013.5 |
| 20260904194224 | 33 | 164 | 1.6 | 1.6 | 0.00 | 0.00 | 0.00 | 59 | 1013.9 |
| 20260904194157 | 33 | 147 | 1.6 | 6.4 | 0.00 | 0.00 | 0.00 | 59 | 1013.9 |
| 20260904193723 | 33 | 34 | 3.2 | 3.2 | 0.00 | 0.00 | 0.00 | 58 | 1013.9 |
| 20260904193224 | 33 | 80 | 4.8 | 8.0 | 0.00 | 0.00 | 0.00 | 58 | 1013.9 |
| 20260904193157 | 33 | 123 | 1.6 | 4.8 | 0.00 | 0.00 | 0.00 | 62 | 1013.9 |
| 20260904192723 | 33 | 130 | 4.8 | 9.7 | 0.00 | 0.00 | 0.00 | 60 | 1014.2 |
| 20260904192223 | 33 | 107 | 4.8 | 4.8 | 0.00 | 0.00 | 0.00 | 59 | 1014.2 |
| 20260904192156 | 33 | 71 | 6.4 | 6.4 | 0.00 | 0.00 | 0.00 | 59 | 1014.2 |
| 20260904191724 | 33 | 158 | 1.6 | 8.0 | 0.00 | 0.00 | 0.00 | 59 | 1014.2 |
| 20260904191222 | 33 | 126 | 4.8 | 4.8 | 0.00 | 0.00 | 0.00 | 62 | 1014.4 |
| 20260904191155 | 33 | 23 | 1.6 | 3.2 | 0.00 | 0.00 | 0.00 | 62 | 1014.4 |
| 20260904190723 | 33 | 116 | 4.8 | 6.4 | 0.00 | 0.00 | 0.00 | 62 | 1014.4 |
| 20260904190224 | 33 | 113 | 3.2 | 8.0 | 0.00 | 0.00 | 0.00 | 61 | 1014.4 |
| 20260904190157 | 33 | 93 | 3.2 | 3.2 | 0.00 | 0.00 | 0.00 | 60 | 1014.4 |
| 20260904185722 | 33 | 82 | 6.4 | 9.7 | 0.00 | 0.00 | 0.00 | 60 | 1014.5 |
| 20260904185223 | 33 | 100 | 9.7 | 9.7 | 0.00 | 0.00 | 0.00 | 60 | 1014.5 |
| 20260904185156 | 33 | 117 | 6.4 | 6.4 | 0.00 | 0.00 | 0.00 | 60 | 1014.5 |
| 20260904184723 | 33 | 119 | 6.4 | 8.0 | 0.00 | 0.00 | 0.00 | 59 | 1014.5 |
| 20260904184223 | 33 | 113 | 3.2 | 4.8 | 0.00 | 0.00 | 0.00 | 63 | 1014.8 |
| 20260904184156 | 33 | 14 | 1.6 | 1.6 | 0.00 | 0.00 | 0.00 | 63 | 1014.8 |
| 20260904183724 | 33 | 136 | 6.4 | 6.4 | 0.00 | 0.00 | 0.00 | 62 | 1014.8 |
| 20260904183223 | 33 | 167 | 0.0 | 3.2 | 0.00 | 0.00 | 0.00 | 61 | 1014.8 |
| 20260904183155 | 33 | 356 | 3.2 | 4.8 | 0.00 | 0.00 | 0.00 | 61 | 1014.8 |
| 20260904182723 | 33 | 37 | 4.8 | 4.8 | 0.00 | 0.00 | 0.00 | 63 | 1014.9 |
| 20260904182224 | 33 | 65 | 3.2 | 11.3 | 0.00 | 0.00 | 0.00 | 62 | 1014.9 |
| 20260904182157 | 33 | 151 | 6.4 | 6.4 | 0.00 | 0.00 | 0.00 | 62 | 1014.9 |
| 20260904181723 | 33 | 179 | 0.0 | 3.2 | 0.00 | 0.00 | 0.00 | 62 | 1014.9 |
| 20260904181222 | 33 | 121 | 1.6 | 4.8 | 0.00 | 0.00 | 0.00 | 62 | 1015.0 |
| 20260904181155 | 33 | 134 | 0.0 | 8.0 | 0.00 | 0.00 | 0.00 | 63 | 1015.0 |
| 20260904180723 | 33 | 144 | 0.0 | 6.4 | 0.00 | 0.00 | 0.00 | 61 | 1015.0 |
| 20260904180223 | 33 | 79 | 0.0 | 1.6 | 0.00 | 0.00 | 0.00 | 63 | 1015.0 |
| 20260904180156 | 33 | 120 | 0.0 | 0.0 | 0.00 | 0.00 | 0.00 | 65 | 1015.0 |
| 20260904175722 | 33 | 83 | 3.2 | 3.2 | 0.00 | 0.00 | 0.00 | 64 | 1015.2 |